Regional Weather Roundup
Issued by NWS

Home | Current Version | Previous Version | Text Only | Print | Product List | Glossary On
Versions: 1 2 3 4 5 6 7 8 9 10 11 12 13 14 15 16 17 18 19 20 21 22 23 24 25 26 27 28 29 30 31 32 33 34 35 36 37 38 39 40 41 42 43 44 45 46 47 48 49 50
000
ASUS45 KPSR 161510
RWRAZ

ARIZONA HOURLY REGIONAL WEATHER ROUNDUP
NATIONAL WEATHER SERVICE PHOENIX AZ
800 AM MST TUE JAN 16 2018

NOTE: FAIR INDICATES FEW OR NO CLOUDS BELOW 12,000 FEET WITH NO
SIGNIFICANT WEATHER AND/OR OBSTRUCTIONS TO VISIBILITY.

AZZ001>003-036-161600-
NORTHWEST ARIZONA

CITY           SKY/WX    TMP DP  RH WIND       PRES   REMARKS
BULLHEAD CITY  CLEAR     52  39  62 S5        30.13F
KINGMAN        CLEAR     38  32  79 E6        30.20R WCI  33
$$

AZZ004>008-015-016-018-161600-
NORTH CENTRAL ARIZONA

CITY           SKY/WX    TMP DP  RH WIND       PRES   REMARKS
GRAND CANYON   MOCLDY    36  21  54 E7        30.31R WCI  30
WILLIAMS       MOCLDY    36  18  48 SE6       30.27R WCI  31
PRESCOTT       PTCLDY    36  26  67 CALM      30.25R
FLAGSTAFF      MOCLDY    24  19  81 CALM      30.30S
PAYSON         PTCLDY    41  23  48 VRB3      30.25R
PAGE           MOCLDY    35  27  72 CALM      30.34R
$$

AZZ009>014-017-161600-
NORTHEAST ARIZONA

CITY           SKY/WX    TMP DP  RH WIND       PRES   REMARKS
WINSLOW        MOCLDY    25  16  68 CALM      30.33R
SAINT JOHNS    PTCLDY    26  20  77 S3        30.31R
WINDOW ROCK    PTCLDY    19  16  88 CALM      30.34R
SHOW LOW       MOCLDY    28  23  80 CALM      30.33R
$$

AZZ540-542>544-546-548-161600-
GREATER PHOENIX AREA

CITY           SKY/WX    TMP DP  RH WIND       PRES   REMARKS
PHOENIX        MOCLDY    53  37  54 CALM      30.12R
BUCKEYE        MOCLDY    46  39  76 N5        30.14R
GLENDALE       MOCLDY    48  37  66 CALM      30.14R
LUKE AFB       CLEAR     48  37  66 N5        30.12R
DEER VALLEY    CLEAR     51  35  54 N6        30.13R
SCOTTSDALE     CLEAR     50  37  61 NW3       30.14R
MESA-FALCON    MOCLDY    57  30  35 N13       30.14R
MESA-GATEWAY   PTCLDY    46  36  66 SE6       30.15R
CHANDLER       PTCLDY    48  37  66 CALM      30.14R
$$

AZZ539-553-161600-
SOUTHWEST MARICOPA COUNTY AND PINAL COUNTY

CITY           SKY/WX    TMP DP  RH WIND       PRES   REMARKS
CASA GRANDE    NOT AVBL
GILA BEND      PTCLDY    48  36  62 E3        30.12R
$$

AZZ503-504-507>509-161600-
SOUTHEAST ARIZONA

CITY           SKY/WX    TMP DP  RH WIND       PRES   REMARKS
TUCSON         CLEAR     51  24  34 S7        30.14R
DAVIS-MONTHAN  PTCLDY    53  22  29 SE9       30.12R
RYAN FIELD     CLEAR     46  23  39 MISG      30.15R
NOGALES        PTCLDY    42  23  46 S3        30.16S
SIERRA VISTA   MOCLDY    44  20  37 N3        30.23F
DOUGLAS        CLOUDY    43  24  47 E8        30.27R
SAFFORD        CLOUDY    40  23  50 SE10      30.35R WCI  33
$$

AZZ532-161600-
SOUTHWEST ARIZONA

CITY           SKY/WX    TMP DP  RH WIND       PRES   REMARKS
YUMA           NOT AVBL
$$

CAZ041-043-047-048-061-525>527-560>570-161600-
SOUTHERN CALIFORNIA

CITY           SKY/WX    TMP DP  RH WIND       PRES   REMARKS
DOWNTOWN L.A.  MOCLDY    52  51  97 CALM      30.12R FOG
L.A. AIRPORT   MOCLDY    55  55 100 VRB3      30.14R FOG
SAN DIEGO      MOCLDY    55  52  89 CALM      30.14R
BURBANK        MOCLDY    52  45  77 W5        30.12S
ONTARIO        CLOUDY    54  41  61 CALM      30.13R
RIVERSIDE      MOCLDY    50  43  77 CALM      30.14R
PALM SPRINGS   CLOUDY    57  41  55 N3        30.10R
IMPERIAL       PTCLDY    49  32  52 S5        30.07S
BLYTHE         PTCLDY    45  36  70 NW3       30.12R
NEEDLES        CLEAR     52  40  63 SW7       30.14R
$$

NVZ020-UTZ003-161600-
SOUTHERN NEVADA-UTAH

CITY           SKY/WX    TMP DP  RH WIND       PRES   REMARKS
LAS VEGAS      MOCLDY    50  39  66 SW3       30.20R
SALT LAKE CITY PTCLDY    32  22  66 NE3       30.32R
$$

NMZ009-TXZ055-161600-
NEW MEXICO-WEST TEXAS

CITY           SKY/WX    TMP DP  RH WIND       PRES   REMARKS
ALBUQUERQUE    CLOUDY    25  14  63 E13       30.47R WCI  14
EL PASO        CLOUDY    28   7  41 CALM      30.52R
$$


........................KEY........................
SKY/WX - SKY CONDITION/WEATHER
TMP    - TEMPERATURE IN FAHRENHEIT
DP     - DEW POINT IN FAHRENHEIT
RH     - RELATIVE HUMIDITY IN PERCENT
WIND   - DIRECTION AND SPEED IN MILES PER HOUR (MPH)
VRB    - VARIABLE WIND DIRECTION
PRES   - MEAN SEA LEVEL PRESSURE IN INCHES OF MERCURY
         F - FALLING PRESSURE   R - RISING PRESSURE
         S - STEADY PRESSURE
VSB    - VISIBILITY IN MILES
HX     - HEAT INDEX IN FAHRENHEIT
WCI    - WIND CHILL INDEX IN FAHRENHEIT
TC     - TEMPERATURE IN CELSIUS WHICH IS ALSO KNOWN AS
         TEMPERATURE IN CENTIGRADE
AFB    - AIR FORCE BASE
         LUKE AFB IS LUKE AIR FORCE BASE
         DAVIS-MONTHAN IS DAVIS-MONTHAN AIR FORCE BASE
NAS    - NAVAL AIR STATION
         EL CENTRO NAS IS EL CENTRO NAVAL AIR STATION
N/A    - NOT AVAILABLE




USA.gov is the U.S. government's official web portal to all federal, state and local government web resources and services.